Theta_e
318 319 322 323 322 325 332 338 344 340 331 326 328 332 329 331 330 326 331 332 333 325 316 313 313 316 318 314 307 303 304 307 310 314 316 306 301 298 296 297 298 300 302 304 305 305 306 308 311 312 312 313 313 314 315 315 316 317 317 318 318 320 322 324 325 325 325 325 325 325 326 326 325 325 326 326 324 323 323 323 324 324 325 326 326 327 327 328 328 329 328 328 327 327 326 324 323
317 320 322 323 323 326 337 342 345 336 322 319 321 326 325 325 323 320 326 330 328 319 312 310 308 307 307 304 303 303 301 302 304 307 304 299 300 296 293 294 293 294 297 301 302 302 305 306 309 310 310 311 311 312 313 313 314 314 315 315 315 316 318 320 322 323 324 324 324 325 325 326 326 325 326 326 324 324 323 324 323 323 324 324 325 326 326 327 327 328 328 328 327 327 327 325 324
318 321 323 323 327 328 340 345 346 334 318 315 315 319 321 317 316 318 322 326 322 316 313 309 306 303 304 305 303 305 302 299 299 302 299 296 298 295 293 293 292 292 292 296 299 301 303 305 307 307 308 309 309 310 310 311 311 312 312 313 313 314 315 316 317 319 320 321 322 323 324 325 325 325 325 325 325 324 324 323 323 323 323 324 325 325 326 326 326 326 326 327 327 327 327 326 325
319 322 321 323 333 337 347 345 341 333 319 318 314 312 317 313 312 318 319 317 315 317 319 311 303 299 301 302 301 302 301 300 297 298 297 294 294 293 292 291 291 291 290 292 295 298 300 303 304 305 306 306 307 307 308 309 309 310 310 310 311 312 313 313 314 315 316 317 318 319 320 321 322 323 323 324 325 325 324 323 323 323 323 324 324 324 325 325 325 325 325 326 327 327 327 326 325
318 321 321 323 334 337 342 331 323 322 315 319 317 310 313 312 311 316 316 312 309 313 317 312 304 298 298 298 300 301 298 299 296 295 294 291 291 291 291 291 290 290 290 290 291 295 298 301 302 303 304 304 305 305 306 306 307 308 308 308 309 310 310 311 311 312 312 313 314 315 316 317 318 319 319 321 323 324 324 324 324 324 323 324 324 323 324 324 324 324 325 325 326 327 327 326 326
317 320 322 323 327 328 326 317 311 312 310 315 315 309 311 310 311 314 315 312 307 308 308 307 305 299 297 296 297 296 295 299 295 292 292 290 291 290 290 290 290 290 289 289 289 291 295 299 300 301 301 302 303 303 303 304 305 305 306 306 306 307 308 308 309 309 310 310 311 311 312 314 315 315 316 317 318 320 322 323 324 324 323 323 323 323 323 323 324 324 324 324 325 325 326 325 325
316 320 327 329 327 322 315 312 311 311 310 311 310 309 311 310 309 313 315 313 306 305 305 302 301 299 298 297 295 293 293 295 292 291 291 290 291 290 290 290 290 289 289 289 289 290 292 295 298 299 299 300 301 301 301 301 302 303 304 304 304 305 305 306 306 307 308 308 308 308 309 310 312 312 313 314 314 316 317 319 322 322 323 323 323 322 322 322 323 323 323 324 325 325 325 325 325
317 320 327 334 331 322 313 311 311 310 310 308 309 310 311 311 309 309 309 310 304 301 304 302 300 299 297 296 295 293 292 292 291 291 291 291 291 290 290 290 290 289 289 289 289 290 290 292 295 297 297 298 299 300 299 300 300 300 301 301 302 303 303 303 303 304 305 305 306 306 306 307 308 309 310 311 311 313 314 315 317 319 321 322 323 322 322 322 322 322 323 323 324 325 325 325 325
317 318 325 331 324 318 313 311 311 309 309 307 308 310 310 310 308 307 304 304 303 299 299 301 301 300 296 296 295 293 292 291 292 291 291 291 290 290 290 289 289 288 289 289 289 289 289 290 291 294 295 295 296 297 298 298 298 299 299 299 299 300 301 301 301 301 301 302 303 303 303 303 304 306 307 308 308 309 311 312 313 314 316 318 320 321 322 322 322 322 322 323 323 324 324 325 324
318 318 325 326 315 313 311 310 310 307 306 307 307 308 307 305 305 305 304 301 301 300 297 297 299 298 295 296 296 293 292 292 292 290 290 290 289 289 289 288 288 288 288 288 288 289 289 289 289 291 292 293 293 294 296 297 297 298 298 298 298 298 299 299 299 299 299 299 299 300 300 300 301 302 304 305 305 306 307 310 311 311 312 313 315 317 320 321 321 322 322 322 322 323 323 324 324
325 326 328 323 315 313 310 310 309 305 304 304 305 306 305 302 302 302 302 301 299 299 298 297 296 295 294 294 295 293 292 292 291 289 289 289 289 289 288 288 288 288 288 288 289 289 289 289 289 289 289 290 290 291 293 294 295 296 297 297 297 297 297 297 298 297 297 297 296 297 297 298 298 299 300 302 303 303 304 306 308 308 309 310 311 313 315 317 319 320 321 322 321 322 323 324 324
324 326 331 321 315 313 311 311 308 306 303 302 303 304 304 300 301 299 299 300 298 299 298 297 296 294 294 294 293 292 292 291 290 289 289 289 288 288 288 288 288 288 288 288 289 289 289 289 289 289 289 289 289 289 289 292 293 293 295 295 295 295 296 296 296 295 296 296 295 294 293 294 295 296 297 299 299 300 301 303 305 306 306 307 308 309 310 312 313 315 318 320 321 321 322 322 323
321 323 331 315 313 314 311 312 308 307 303 302 302 301 302 300 299 297 297 297 296 299 298 296 296 295 294 294 293 293 292 290 289 289 288 288 288 288 288 288 288 288 288 289 289 289 289 289 289 289 289 289 289 289 289 289 290 290 291 293 293 293 293 294 294 293 293 293 293 292 291 290 292 293 294 296 296 296 298 300 303 304 304 304 305 306 307 307 308 309 311 315 318 320 321 321 322
318 324 329 314 313 315 311 310 307 307 303 301 301 299 300 300 298 297 297 298 295 296 296 294 295 295 294 293 294 293 291 289 289 289 288 288 288 288 288 288 288 288 288 288 288 288 288 288 289 288 288 288 288 288 289 289 289 289 289 290 291 291 291 291 293 292 291 291 291 290 289 289 289 290 291 293 293 293 294 296 299 302 302 302 301 303 305 306 306 306 307 310 313 316 319 320 321
314 325 333 323 316 312 309 309 307 306 302 301 300 298 298 297 298 296 297 298 295 294 294 294 294 296 296 294 294 291 289 289 288 288 288 288 288 288 288 288 288 288 288 288 288 288 288 288 288 288 288 288 288 288 288 288 288 288 288 288 288 289 289 289 289 289 289 289 289 288 289 288 289 289 289 290 290 289 291 293 296 298 300 300 299 299 301 303 304 305 304 306 308 312 315 318 320
317 322 326 322 313 308 307 306 306 305 302 300 298 298 297 295 296 295 295 295 294 292 293 294 293 295 294 292 291 288 288 288 288 288 288 288 287 287 287 288 288 288 288 288 288 288 288 287 287 287 287 286 287 287 287 287 287 287 288 288 287 287 288 288 287 287 287 288 288 288 288 288 287 288 289 289 289 288 288 290 293 295 296 298 297 296 298 299 300 303 304 304 304 307 312 315 317
322 319 314 312 307 306 305 304 307 305 300 300 298 299 297 294 294 294 293 292 292 291 290 290 290 290 290 289 288 287 288 288 288 288 288 287 287 287 287 287 288 288 288 288 287 287 286 286 286 286 285 285 285 285 286 286 286 286 287 287 287 286 286 287 286 286 287 287 287 287 287 287 287 286 287 288 289 289 288 288 289 291 293 295 295 294 296 296 297 299 301 303 303 302 306 311 313
324 319 312 308 305 305 304 304 305 303 300 300 298 297 296 295 294 293 293 291 290 289 289 288 288 288 287 287 287 287 288 288 288 288 288 287 287 287 287 287 287 287 287 287 287 286 286 285 285 285 285 285 284 285 285 285 285 285 285 285 285 285 285 285 285 285 286 286 286 286 287 287 286 286 286 287 288 288 288 288 288 288 289 291 292 292 294 295 295 296 297 300 302 301 300 304 307
318 318 311 307 306 303 302 303 302 302 300 299 298 297 297 297 295 294 294 291 290 290 289 288 288 287 287 287 287 288 288 288 288 288 287 287 287 287 286 286 286 287 286 286 286 286 285 285 285 284 284 284 284 284 284 284 284 284 284 284 284 284 284 284 284 284 284 285 285 286 286 286 286 285 285 286 286 287 287 288 288 287 287 288 289 290 291 293 293 295 296 296 300 302 299 298 300
310 313 309 304 305 302 301 303 301 300 300 301 300 297 297 296 295 295 294 292 291 291 289 289 289 287 287 286 287 288 288 288 288 288 287 287 287 286 286 286 286 286 286 286 285 285 285 285 285 285 284 284 284 284 284 284 283 283 283 283 283 283 283 283 283 284 284 284 284 285 285 285 285 285 285 285 286 286 286 287 288 288 287 287 287 288 289 291 292 293 294 295 296 298 298 297 297
307 311 310 303 302 302 300 301 300 299 299 301 300 298 297 295 295 294 293 295 293 291 291 291 290 287 287 286 286 288 288 287 287 287 287 287 287 286 286 286 286 286 286 286 285 285 285 285 285 285 284 284 284 284 284 283 283 283 283 283 282 282 282 282 283 283 283 283 283 284 284 284 285 285 284 285 286 286 286 286 287 287 287 287 287 287 288 289 290 290 291 293 294 295 295 296 296
306 305 305 302 302 301 299 300 300 298 298 300 299 300 297 294 295 292 294 300 296 292 292 291 289 287 286 286 286 287 287 287 287 287 287 287 287 287 287 286 286 286 286 285 285 285 285 285 285 284 284 284 284 284 283 283 283 283 283 282 282 282 282 282 282 282 282 283 282 283 283 284 284 284 284 285 286 286 286 285 286 286 286 287 287 287 287 288 289 289 289 289 290 293 294 295 295
304 301 300 301 301 300 299 299 299 299 300 302 301 299 295 294 295 291 292 297 295 291 290 288 287 286 286 286 286 286 286 286 286 287 287 287 287 287 287 286 286 286 286 286 285 286 285 285 285 285 284 284 284 284 283 283 283 283 283 282 282 282 282 282 282 282 282 282 282 282 282 283 283 284 284 285 286 286 286 285 286 286 286 286 286 286 287 287 287 288 288 287 288 289 292 294 295
305 302 300 299 300 300 298 298 299 301 302 300 297 296 295 296 296 292 291 291 291 289 287 287 287 286 286 286 285 285 286 286 286 287 287 287 287 286 287 286 286 286 286 286 286 286 285 285 285 285 285 284 284 284 283 283 283 283 283 282 282 282 282 282 282 282 282 282 282 282 282 282 282 284 284 285 285 285 285 285 285 285 285 285 285 285 285 286 286 286 286 287 287 288 288 290 292
305 301 299 299 299 299 297 297 299 300 298 295 295 296 295 294 294 292 290 290 289 288 287 287 286 286 286 285 285 285 286 286 286 287 287 287 287 286 286 286 286 286 286 286 286 286 285 285 285 285 285 284 284 284 283 283 283 283 283 282 282 282 282 282 282 282 281 281 281 282 282 281 282 283 284 284 284 284 283 283 283 283 283 283 284 284 284 285 285 285 285 286 286 287 287 287 288
306 302 299 300 299 298 297 297 298 297 294 295 296 294 292 291 293 292 289 289 288 287 287 285 286 286 286 285 285 286 286 286 287 287 287 287 286 286 286 286 286 286 286 286 286 286 286 285 285 285 285 285 284 284 283 283 283 283 283 282 282 282 282 282 282 282 281 281 281 281 281 281 282 282 283 283 283 282 282 281 281 281 281 282 282 282 283 283 283 283 284 285 286 286 287 287 287
307 305 301 301 300 299 299 298 296 296 294 295 298 293 291 291 293 293 290 289 288 287 287 286 286 287 286 285 285 286 286 286 287 287 287 286 286 286 286 286 286 286 286 286 286 286 286 285 285 285 285 284 284 284 284 283 283 283 282 282 282 282 282 282 282 282 282 281 281 281 281 281 282 282 282 282 282 281 281 280 281 281 281 281 281 281 281 282 282 282 283 284 285 286 287 287 287
305 305 301 301 302 300 300 299 296 297 295 294 295 292 291 291 294 295 290 288 288 287 287 286 287 287 286 285 284 285 286 286 287 286 286 287 287 287 287 287 287 287 287 286 286 285 285 285 285 284 284 283 283 283 283 283 282 282 282 281 281 282 282 282 282 282 282 282 281 281 281 281 281 281 281 282 281 281 281 280 280 281 281 280 280 280 280 281 281 281 282 284 285 285 286 286 287
306 307 306 305 308 302 299 301 297 300 297 292 294 295 295 295 294 293 289 288 287 287 287 287 287 287 287 286 284 285 286 286 286 286 287 287 287 287 287 287 287 287 286 286 285 285 285 284 283 283 282 282 282 282 281 281 281 281 281 281 281 281 281 282 282 282 282 282 281 281 281 281 281 281 281 281 281 281 280 280 280 280 280 280 280 280 280 280 281 281 281 282 283 284 285 286 286
306 307 310 309 310 305 300 301 299 299 298 293 296 300 302 299 294 290 288 287 287 287 287 287 287 286 286 287 286 285 285 286 286 286 287 287 287 287 287 287 287 286 286 285 285 284 284 283 282 281 281 281 281 281 281 280 280 280 280 280 281 281 281 281 281 281 281 281 281 281 281 281 281 281 281 281 281 281 280 280 280 280 280 280 280 279 279 280 280 280 280 281 281 282 283 284 285
307 305 309 308 305 305 301 300 300 298 297 296 297 300 302 300 293 289 288 287 287 288 287 286 286 286 286 286 286 286 285 286 287 287 287 287 287 287 287 287 285 285 284 284 283 282 282 281 281 281 281 280 280 280 280 280 280 280 280 280 280 280 280 280 280 281 281 281 281 281 281 281 281 281 281 281 280 280 280 279 279 279 279 279 279 279 279 279 279 279 279 279 279 280 281 282 283
311 307 311 309 303 304 302 300 301 299 297 298 298 300 303 300 293 289 288 287 287 287 287 286 286 286 286 286 286 286 285 285 286 287 287 287 287 286 285 284 283 283 283 282 281 281 281 281 280 280 280 280 280 280 279 279 279 279 280 279 280 280 280 280 280 280 280 280 281 281 281 281 281 281 281 280 280 280 279 279 279 279 279 278 278 278 278 278 278 278 278 278 278 278 279 279 281
312 306 308 309 303 302 302 300 301 299 298 300 299 299 302 300 294 290 288 287 287 287 287 286 286 286 286 285 285 285 285 285 285 286 286 286 286 284 283 282 282 282 281 281 281 281 280 280 280 279 279 279 279 279 279 279 279 279 279 279 279 279 279 280 279 280 280 280 280 280 280 281 281 281 280 280 280 279 279 279 279 279 278 278 278 278 278 277 277 277 277 277 277 277 277 278 279
312 307 306 306 301 300 301 300 300 300 300 299 298 298 300 301 294 290 288 287 287 287 287 287 286 286 286 285 285 285 285 286 285 285 286 285 284 283 282 281 281 281 280 280 280 280 279 279 279 278 278 278 278 278 278 278 278 278 278 278 278 278 279 279 279 279 279 279 279 279 279 280 280 280 280 279 279 279 279 279 278 278 278 278 277 277 277 277 277 277 277 277 277 276 276 277 277
307 306 306 304 301 299 299 300 300 301 299 299 299 299 301 300 293 290 289 287 288 287 287 287 286 286 286 286 286 286 286 286 286 286 285 284 283 282 281 282 281 280 280 280 280 279 278 278 278 278 278 278 278 278 278 277 277 277 277 277 278 278 278 278 278 278 278 278 278 278 278 278 278 278 278 278 278 278 278 278 278 277 277 277 277 277 277 276 276 276 276 276 276 276 276 276 276
304 304 303 302 301 299 299 299 300 299 298 300 301 300 300 299 295 291 289 288 287 288 287 287 287 286 286 286 286 286 287 287 286 286 285 283 282 282 281 281 281 280 279 279 279 278 278 278 277 277 277 277 277 277 277 276 276 276 276 276 276 277 277 277 276 277 277 277 277 277 276 276 277 277 277 277 277 277 277 277 277 277 277 276 276 276 276 276 276 276 276 276 276 276 276 276 276
301 303 301 300 300 299 298 299 300 299 299 303 303 300 298 298 297 292 290 289 288 287 288 287 287 287 286 287 287 288 288 287 286 286 284 282 282 281 281 281 280 279 279 279 279 278 278 277 277 277 277 277 277 276 276 275 275 275 274 274 275 275 275 275 275 275 275 276 276 276 276 275 275 275 275 276 276 276 276 276 276 276 276 276 276 276 276 276 276 276 276 276 276 276 276 276 276
302 302 300 301 302 299 297 297 300 300 298 301 302 298 298 299 297 292 290 290 288 288 288 287 287 287 287 287 288 289 289 287 285 285 283 282 281 281 280 280 279 279 279 278 278 277 277 277 276 276 276 276 276 275 275 274 274 274 274 273 273 274 274 274 274 274 274 274 275 275 275 275 274 274 274 274 275 275 275 275 275 275 275 275 275 275 275 275 276 276 276 275 276 276 276 276 276
305 303 300 301 302 300 300 299 300 298 297 301 301 298 298 298 295 292 291 290 289 289 288 288 288 287 287 288 289 290 289 288 285 283 283 282 281 280 280 279 279 279 278 278 277 277 277 276 276 276 275 275 275 274 274 274 273 273 273 273 273 273 273 273 273 273 274 274 274 274 274 274 274 274 273 274 274 274 274 274 274 274 274 275 275 275 275 275 275 275 275 275 276 276 276 275 276
304 301 301 301 300 298 300 300 299 298 297 299 301 298 297 296 293 292 291 291 290 290 290 289 288 288 288 288 289 289 289 289 287 283 282 281 280 279 279 279 279 278 278 277 277 276 276 276 275 275 275 274 274 274 273 273 272 272 272 272 272 272 272 273 273 273 273 273 273 273 273 273 273 273 273 273 273 273 274 274 274 274 274 274 274 274 274 274 275 275 275 275 275 276 275 276 276
302 301 300 299 299 298 298 299 298 298 299 298 297 298 299 295 293 293 292 290 290 290 291 290 289 288 289 289 289 289 289 288 286 283 281 280 280 279 279 279 279 278 277 277 276 275 275 275 274 274 274 273 273 273 272 272 272 271 271 271 271 272 272 272 272 272 273 272 273 272 272 272 272 272 272 272 273 273 273 273 273 273 273 273 273 274 274 274 274 274 274 275 275 276 276 276 276
302 304 302 298 298 298 298 299 297 300 302 299 296 301 304 297 294 295 292 290 290 289 290 290 289 289 289 289 289 289 289 286 283 282 280 280 279 279 279 279 278 277 277 276 275 275 275 274 274 274 273 273 272 272 272 271 271 271 271 271 271 271 271 272 272 272 272 272 272 272 272 272 272 272 272 272 272 272 272 272 272 272 272 273 273 273 273 273 273 273 274 274 275 275 276 276 276
302 304 301 298 298 297 298 298 298 302 302 298 297 301 302 297 297 296 292 290 290 289 290 289 289 289 288 288 288 289 287 284 282 281 279 279 279 279 279 279 278 277 276 275 275 274 274 274 273 273 273 272 272 271 271 271 271 271 271 270 270 271 271 271 271 271 272 272 271 271 271 271 271 271 271 271 271 271 272 272 272 272 272 272 272 272 272 273 273 273 273 273 274 274 275 275 275
304 305 300 298 298 297 298 297 297 300 299 298 299 297 298 298 298 294 291 291 290 289 290 289 288 288 287 287 287 288 287 284 284 283 280 279 279 279 278 278 277 276 276 275 275 274 274 273 273 273 272 272 271 271 271 271 270 270 270 270 270 271 271 271 271 271 271 271 270 270 270 270 270 271 271 271 271 271 271 271 271 271 272 271 271 272 272 272 272 272 273 273 273 273 274 274 275
303 305 299 298 298 297 298 297 298 299 297 301 301 295 297 301 298 292 289 291 292 290 290 290 289 288 287 287 287 288 287 284 283 281 280 279 279 279 278 278 277 276 275 275 274 274 273 273 273 272 272 271 271 270 270 270 270 270 270 270 270 270 270 270 270 270 270 270 269 270 270 270 270 270 270 271 270 271 271 271 271 271 271 271 271 271 271 271 271 272 272 273 273 273 273 274 274
301 302 299 298 297 297 297 297 300 301 300 304 301 295 298 301 299 294 291 293 294 294 292 291 289 288 288 288 288 288 287 285 281 279 280 279 279 279 278 277 276 276 275 275 274 274 273 273 272 272 271 271 270 270 270 270 269 269 269 269 270 270 270 269 269 269 269 269 269 269 270 270 270 270 270 270 270 270 270 270 270 270 270 271 271 271 271 271 271 271 272 272 272 272 272 273 273
301 301 299 298 298 298 299 300 301 302 305 307 298 294 297 300 301 297 295 299 300 298 295 293 291 289 288 288 288 288 287 286 283 279 279 279 279 278 277 277 276 275 275 274 274 273 273 273 272 272 271 270 270 270 269 269 269 269 269 269 269 269 269 269 269 269 269 269 269 269 270 270 270 270 270 270 270 270 270 270 270 270 270 270 270 270 270 271 271 271 271 271 271 271 271 272 272
300 299 298 301 303 300 301 305 305 305 310 307 295 293 296 298 303 301 297 299 299 298 297 296 295 292 289 289 288 287 287 286 284 280 279 278 278 278 277 276 276 275 275 274 274 273 273 272 272 271 271 270 270 269 269 269 268 269 268 269 268 268 268 269 269 269 269 269 269 269 270 270 270 269 269 269 269 269 269 270 270 270 270 270 270 270 270 270 270 270 270 270 271 271 271 271 271
300 299 299 305 309 306 306 310 307 307 309 302 294 295 297 297 300 300 298 297 297 297 297 296 296 294 291 289 288 287 287 285 283 282 279 277 277 277 277 276 275 275 274 274 273 273 272 272 271 271 270 270 269 269 269 268 268 268 268 268 268 268 268 268 268 268 269 269 269 269 269 269 269 269 269 269 269 269 269 269 269 270 270 270 270 270 270 270 270 270 270 270 270 270 271 271 271
299 298 300 307 308 307 310 308 305 307 306 298 293 295 299 300 300 300 300 299 297 297 296 295 294 293 292 290 288 287 286 284 282 281 279 277 277 277 276 276 275 275 274 273 273 272 272 271 271 270 270 270 269 269 268 268 268 268 268 268 268 268 268 268 268 268 269 269 269 269 269 269 269 269 269 269 269 269 269 269 269 269 269 269 269 270 270 270 270 270 270 270 270 270 270 270 271
298 297 299 305 305 305 309 308 307 306 303 297 294 299 305 305 303 303 300 296 294 293 293 292 291 290 290 288 287 286 285 283 281 280 278 277 277 277 276 276 275 275 274 273 273 272 272 271 271 270 270 269 269 268 268 268 268 268 267 267 268 268 268 268 268 269 269 269 268 268 268 269 269 269 269 269 269 269 269 269 269 269 269 269 269 269 269 269 270 270 270 270 270 270 270 270 270
297 296 299 303 302 302 305 305 303 299 299 299 298 303 306 302 301 298 294 293 292 292 291 289 289 289 287 286 285 285 284 281 280 280 279 277 277 277 276 276 275 274 274 273 273 272 272 271 271 270 270 269 268 268 268 268 267 267 267 267 267 268 268 268 268 268 268 268 268 268 268 268 268 268 269 269 269 269 269 269 269 269 269 269 269 269 269 269 269 269 270 270 270 270 270 270 270
297 298 301 297 295 298 301 301 298 296 299 302 300 302 300 298 301 296 290 292 293 291 291 290 289 288 287 286 284 283 283 281 280 280 279 277 277 276 276 276 275 274 274 273 273 272 272 271 270 270 269 269 268 268 268 267 267 267 267 267 267 267 267 267 267 267 268 268 268 268 268 268 268 268 268 268 269 269 269 269 269 269 269 269 269 269 269 269 269 269 269 269 269 270 270 270 270
299 300 299 295 294 299 299 299 301 300 303 302 299 301 299 299 304 299 293 295 295 293 291 289 288 287 286 285 283 283 283 281 281 280 278 277 276 276 276 276 275 274 274 273 273 272 271 271 270 270 269 269 268 268 267 267 267 267 267 267 267 267 267 267 267 267 267 267 267 267 268 268 268 268 268 268 269 269 269 269 269 269 269 269 269 269 269 269 269 269 269 269 269 269 269 270 270
297 298 296 296 300 304 300 299 303 303 303 302 300 300 299 300 306 306 300 299 298 296 292 290 290 288 286 285 284 283 283 281 280 279 278 276 276 276 276 275 275 274 274 273 273 272 271 271 270 270 269 269 268 268 267 267 267 267 267 267 267 267 267 267 267 267 267 267 267 267 267 268 268 268 268 268 268 268 268 268 268 268 268 268 269 269 269 269 269 269 269 269 269 269 269 269 269
296 297 295 296 300 302 300 298 300 302 301 302 303 303 302 303 307 307 302 299 299 297 294 293 292 289 286 285 284 283 282 281 279 278 278 276 276 276 276 275 275 274 274 273 272 272 271 270 270 269 269 269 268 268 267 267 267 267 267 267 267 267 267 267 267 267 267 267 267 267 267 267 268 268 268 268 268 268 268 268 268 268 268 268 269 269 269 269 269 269 269 269 269 269 269 269 269
299 299 298 298 297 297 298 296 296 300 302 302 302 303 303 302 303 303 301 300 298 297 296 294 292 289 287 286 285 283 282 280 279 278 278 276 276 276 276 275 275 274 273 273 272 272 271 270 270 269 269 268 268 267 267 267 267 267 267 267 267 266 266 267 266 266 266 266 267 267 267 267 267 268 267 267 268 267 267 267 268 268 268 268 269 269 269 269 269 269 269 269 269 269 269 269 269
301 303 302 302 300 299 300 299 296 295 298 300 300 302 302 299 299 300 300 300 299 297 296 294 292 290 288 286 284 283 282 280 279 278 277 276 275 276 275 275 274 274 273 273 272 271 271 270 270 269 268 268 268 267 267 267 267 266 266 266 266 266 266 266 266 266 266 266 266 267 267 267 267 267 267 267 267 267 267 267 267 268 268 268 268 269 269 269 269 269 269 269 269 269 269 269 269
Wind_Speed
6 7 7 9 12 10 6 3 4 3 4 6 4 3 3 4 1 3 6 5 4 4 4 9 9 7 8 9 11 10 7 4 2 1 2 2 5 14 17 19 22 21 23 24 28 32 33 32 31 31 32 34 34 35 35 34 34 33 33 32 32 29 19 9 4 2 3 3 3 3 4 4 4 4 4 6 5 4 3 2 3 3 5 7 6 7 8 7 7 8 10 10 11 9 7 7 5
6 7 7 9 9 4 1 2 5 2 5 6 4 2 3 5 3 6 6 5 4 5 8 12 13 13 13 13 10 9 9 6 4 2 4 8 6 13 20 21 24 25 25 24 27 31 33 32 30 30 30 32 33 34 34 35 35 34 34 34 33 32 30 25 21 16 12 10 7 5 3 3 3 4 4 4 5 5 4 2 3 4 4 6 7 9 9 8 8 8 9 10 10 11 9 7 5
8 8 9 9 5 3 1 3 4 3 5 5 3 3 3 5 6 7 6 6 5 8 9 9 11 8 6 9 7 6 4 4 7 1 5 16 9 12 20 22 25 25 26 25 27 31 33 32 30 30 29 30 31 33 33 34 35 35 35 34 33 31 31 30 30 27 23 23 20 16 12 10 7 4 3 5 5 5 5 4 3 5 4 5 7 8 9 9 9 9 9 10 10 11 11 9 7
9 10 11 7 3 3 3 4 3 4 5 3 3 4 4 5 5 5 5 9 6 3 4 5 7 6 6 10 5 5 4 2 9 6 5 17 15 14 19 21 24 25 28 28 26 30 32 31 31 31 30 30 30 31 32 33 34 35 35 34 33 31 30 29 30 30 29 29 27 25 22 20 18 15 10 4 4 5 5 4 3 5 5 5 7 8 9 9 9 10 10 10 11 11 12 11 10
10 9 8 4 3 2 3 4 3 5 3 1 4 3 4 2 4 4 5 10 10 8 5 5 4 2 7 7 2 2 3 2 10 14 11 18 20 19 21 22 24 26 28 29 28 29 31 31 30 31 31 30 30 31 31 32 32 33 34 33 32 31 30 29 30 30 30 30 28 29 28 26 24 23 20 18 12 3 3 4 3 4 5 5 7 9 9 9 10 10 10 11 11 12 12 12 12
9 7 5 4 3 2 4 4 5 5 2 1 4 1 4 2 3 4 4 9 12 11 8 6 6 5 5 6 6 7 5 2 10 15 14 19 22 20 21 22 24 27 27 28 29 28 30 31 30 31 31 31 30 31 31 31 32 32 32 33 32 31 31 31 32 31 31 30 29 29 28 27 25 24 24 24 23 17 11 5 2 2 6 5 7 10 10 10 10 9 10 11 12 13 13 13 13
8 4 3 4 4 3 5 5 5 4 3 2 5 2 1 2 4 7 6 5 9 11 9 6 8 9 3 3 7 12 17 15 12 15 17 18 19 20 20 21 23 26 26 26 27 26 27 29 30 31 31 31 31 31 31 31 31 31 31 32 32 32 32 33 33 31 30 30 30 29 27 27 26 25 24 24 25 24 23 17 12 7 1 4 6 9 9 10 11 11 9 10 12 13 15 15 15
6 2 2 4 4 4 5 6 5 3 3 2 3 3 2 3 4 7 7 5 5 7 8 3 6 10 4 2 5 10 21 21 17 18 17 17 17 18 19 20 22 23 24 24 25 24 24 26 28 29 30 31 31 31 31 31 30 30 30 30 31 31 31 32 33 31 30 30 29 28 27 26 27 26 25 24 25 25 26 24 21 17 12 6 2 4 7 8 9 11 11 10 11 12 15 16 15
3 2 2 5 5 4 5 5 4 2 2 2 2 3 5 6 6 6 7 8 4 6 11 2 4 8 4 6 6 5 14 18 18 18 16 17 17 17 18 20 21 22 23 24 25 25 25 25 27 28 29 29 29 30 30 30 30 29 30 30 30 31 31 31 32 32 31 30 29 28 27 26 27 28 28 26 26 25 26 26 24 22 20 17 13 7 1 5 6 9 11 11 10 11 13 15 16
3 3 2 4 4 5 5 4 3 1 2 2 3 4 5 6 8 6 7 7 3 6 10 8 9 10 7 5 4 3 9 14 16 19 18 17 16 17 19 21 21 21 23 24 26 26 28 27 28 28 28 28 29 29 29 30 29 28 29 29 29 29 30 30 31 31 32 31 30 29 28 27 27 26 27 27 27 26 26 26 25 24 22 21 20 17 10 3 3 7 11 10 9 9 11 14 16
3 4 3 5 4 5 4 3 3 2 0 1 3 4 5 6 9 5 5 7 4 4 5 6 9 10 8 5 2 4 11 15 19 21 18 16 17 17 19 20 20 21 23 24 25 26 28 28 29 30 30 30 30 30 30 29 29 28 27 28 29 28 28 28 29 30 31 31 30 29 28 26 25 24 26 27 27 26 26 26 26 24 22 22 21 20 17 14 11 4 6 9 9 8 9 11 14
3 4 4 5 3 4 4 6 4 3 2 1 4 5 4 6 8 5 7 7 4 5 4 3 6 7 6 3 1 6 13 19 20 20 17 16 16 16 16 17 19 21 22 23 24 25 27 28 29 30 31 31 31 32 31 30 30 30 28 27 28 28 27 26 26 27 28 29 29 29 28 26 25 24 24 26 26 25 25 26 26 25 22 21 22 22 20 18 19 17 10 2 7 8 8 8 12
4 1 5 4 3 4 4 4 1 1 1 3 5 5 4 7 8 5 7 8 6 7 6 5 7 6 5 2 1 3 12 18 18 18 16 15 14 14 14 15 17 19 21 22 24 26 27 28 29 30 31 31 32 32 33 32 31 31 30 28 28 29 28 26 25 25 26 26 27 28 29 28 27 25 23 23 24 24 23 25 26 26 24 20 19 20 22 19 20 22 20 12 5 2 6 7 10
3 2 5 3 2 3 4 2 2 3 3 4 4 5 6 6 4 3 7 9 8 3 1 4 5 7 5 3 0 1 9 17 17 17 15 14 12 12 12 13 15 16 19 21 24 26 27 28 29 30 30 31 32 32 33 33 31 31 32 30 29 29 28 27 26 25 26 26 27 28 29 29 28 27 24 22 22 23 22 23 25 26 25 23 19 18 21 19 18 21 21 17 13 7 3 5 7
3 2 5 4 2 2 2 2 2 5 3 2 3 6 9 5 2 3 6 7 3 3 1 5 3 4 4 5 2 1 9 17 15 15 14 14 12 12 13 13 15 16 19 21 23 25 26 27 28 28 29 30 31 31 31 32 32 31 31 31 30 29 29 28 27 26 26 26 27 28 28 29 28 26 26 24 24 25 23 23 24 24 24 24 21 19 20 18 16 18 20 17 16 12 5 3 4
3 4 5 3 2 2 2 2 3 5 2 2 4 6 11 6 4 5 5 4 3 4 3 4 4 4 4 5 7 8 14 16 14 13 13 13 12 13 13 15 16 18 21 22 23 24 25 25 26 27 27 28 28 28 28 29 29 29 30 30 29 29 28 28 28 28 27 27 28 28 28 28 28 27 25 25 25 24 24 23 23 23 23 23 22 19 20 20 16 16 18 17 17 15 8 3 2
4 5 5 4 2 2 2 2 3 4 2 1 1 4 10 5 4 7 6 7 8 6 6 5 7 8 7 7 11 14 16 15 13 11 12 13 12 14 15 16 17 19 21 22 23 23 24 25 26 27 27 27 27 27 27 26 27 27 28 29 28 28 28 28 28 28 27 27 28 29 29 28 28 27 26 25 24 23 23 23 22 22 22 22 22 19 20 20 19 16 16 16 17 18 13 8 5
5 4 4 3 2 2 3 5 4 4 4 1 2 5 12 7 3 6 6 9 9 8 7 7 11 11 11 13 15 16 14 12 10 9 11 12 12 13 14 15 16 18 19 21 22 23 24 25 26 26 27 27 26 26 25 25 24 25 26 27 28 27 28 27 26 26 25 25 25 27 28 28 27 26 25 24 24 23 22 21 21 21 20 21 21 19 19 19 19 18 16 16 14 17 18 14 11
5 4 5 2 4 2 4 5 3 4 5 4 3 5 8 5 6 5 4 4 7 9 5 5 9 7 9 13 15 14 12 11 9 9 11 10 11 10 10 12 14 16 18 20 21 23 23 25 26 26 27 26 26 26 25 25 24 24 24 26 27 27 27 27 26 25 23 23 23 25 26 26 27 25 24 22 22 22 22 21 20 20 20 20 20 19 19 19 19 17 17 18 14 14 19 19 17
3 4 5 3 5 3 2 4 5 6 8 7 4 3 4 2 2 4 6 7 5 7 6 4 6 6 6 8 14 15 12 11 9 9 10 9 9 7 7 9 11 13 16 18 20 22 23 24 26 26 26 26 26 25 24 24 24 24 24 25 26 27 26 27 27 25 24 23 22 23 24 24 25 25 24 23 22 22 22 21 20 20 20 20 20 20 20 19 19 18 17 18 17 15 16 18 19
3 3 4 5 5 3 1 5 6 6 8 7 5 4 5 2 2 5 9 8 2 6 7 7 9 9 7 7 11 14 12 11 8 8 8 7 5 5 6 8 9 12 14 17 19 21 22 23 25 25 25 25 25 25 24 24 25 24 24 24 26 26 26 26 26 25 25 24 24 23 23 23 23 23 24 23 23 23 23 22 22 21 21 21 22 22 22 22 21 22 20 19 19 19 18 17 19
4 3 5 7 5 4 2 4 5 6 8 8 6 5 4 2 3 3 6 5 4 6 5 7 10 10 10 9 11 12 12 11 8 8 7 5 3 4 6 9 10 12 15 17 19 21 22 22 23 24 24 23 23 23 22 23 24 24 24 24 26 26 26 26 24 24 25 25 24 24 24 24 23 22 22 22 22 22 23 23 22 21 21 21 22 22 23 24 23 23 23 22 21 20 19 18 17
4 2 3 4 4 6 4 3 4 6 8 7 6 4 4 4 3 0 1 2 4 3 6 10 11 13 15 13 12 11 11 10 9 7 5 3 1 3 5 8 10 12 15 17 19 21 21 21 22 23 23 23 23 22 21 21 23 23 23 23 24 25 25 26 24 24 25 25 24 24 24 25 24 22 21 20 21 21 21 22 21 21 21 21 22 22 22 23 23 23 23 23 22 22 20 19 17
6 3 2 2 4 7 5 4 5 6 8 5 6 6 4 5 3 2 3 2 2 7 11 14 15 16 16 13 11 11 11 11 9 7 4 2 2 3 5 7 9 11 14 18 19 20 20 21 21 22 22 23 23 22 21 20 21 21 21 22 22 23 24 24 24 24 24 24 24 23 23 24 24 22 20 19 19 19 20 20 20 21 21 22 22 21 21 22 22 23 23 22 23 23 22 21 19
5 5 3 2 3 5 6 6 8 8 7 6 7 7 3 5 5 4 3 3 4 8 12 15 15 14 12 11 11 12 12 11 10 8 6 5 5 5 7 9 9 11 14 18 19 20 20 21 21 20 21 22 23 22 22 21 21 21 20 21 22 22 22 23 24 24 23 23 23 22 21 22 22 20 19 18 18 19 20 20 20 21 22 23 23 22 22 23 23 23 23 23 23 23 23 22 22
2 6 4 4 4 5 6 6 8 8 4 5 7 6 4 5 4 3 4 5 5 8 9 10 11 9 7 8 11 13 13 13 12 11 9 8 8 9 11 10 11 13 16 18 19 21 21 21 21 20 21 22 23 22 23 22 21 21 21 21 22 22 22 21 23 24 23 23 21 21 20 19 19 18 18 18 18 19 21 22 21 21 22 22 23 23 23 23 23 23 23 23 23 23 23 22 22
3 7 5 6 4 3 5 6 7 6 3 4 7 6 5 3 2 0 6 6 6 7 7 6 8 7 6 7 11 13 13 14 14 12 11 10 11 13 14 13 14 15 17 18 20 22 21 21 22 21 21 22 24 23 24 24 22 23 23 23 23 24 23 21 21 23 24 23 20 19 18 16 17 18 18 19 19 21 22 23 22 21 21 22 23 23 22 22 22 22 22 22 22 22 23 22 21
5 8 6 5 4 2 5 6 7 4 2 2 9 7 2 1 2 4 9 7 7 8 7 6 6 7 6 7 9 12 14 15 14 13 13 14 14 15 15 15 16 17 18 19 21 22 21 22 22 19 17 17 19 19 20 21 19 20 20 20 20 21 23 23 22 23 24 23 20 19 16 13 15 16 17 19 21 22 23 24 22 19 20 21 21 22 21 21 21 21 20 20 21 21 22 22 21
4 7 6 5 7 4 4 2 3 2 2 5 10 5 3 3 5 5 9 8 7 8 7 7 6 6 6 6 7 10 14 15 14 16 16 17 16 16 16 16 17 19 21 21 22 22 19 18 16 13 11 10 12 13 13 15 15 16 17 17 17 16 17 20 22 23 24 23 20 18 15 13 14 15 17 20 21 21 22 23 21 18 19 20 20 21 21 20 21 22 22 22 21 22 22 23 22
3 5 5 2 7 2 2 2 1 4 3 9 6 3 5 5 6 5 9 9 8 8 7 7 6 6 6 6 5 8 14 16 16 19 19 18 17 16 16 17 17 20 22 21 20 16 13 11 10 9 10 10 11 12 13 14 15 16 17 17 17 16 14 15 18 21 24 24 20 17 15 15 16 17 18 19 19 19 20 20 19 17 18 19 20 21 21 20 21 23 24 24 24 23 24 24 23
3 3 2 3 3 3 7 4 2 5 3 8 2 4 5 6 6 7 8 9 10 9 8 7 6 6 6 6 6 7 12 19 20 21 20 19 18 17 17 17 16 17 17 15 12 10 8 8 9 10 11 11 12 13 13 14 15 15 16 17 17 17 16 14 14 15 19 23 22 19 17 17 18 18 18 18 17 18 18 18 17 16 17 19 19 19 20 20 22 23 24 26 27 26 25 25 24
3 2 3 3 1 4 8 4 3 5 1 3 2 4 5 5 7 9 8 9 10 9 9 8 7 8 7 7 7 6 11 19 22 22 21 21 18 15 13 12 11 10 9 9 9 9 8 10 11 11 12 13 13 13 13 14 14 15 16 17 17 17 16 15 15 15 16 17 19 20 20 19 18 18 16 15 15 16 16 15 13 14 16 18 18 18 20 21 23 24 23 25 28 28 28 27 26
3 2 2 4 2 4 6 3 3 5 1 3 3 2 5 5 6 9 9 9 10 9 9 9 8 8 8 7 7 6 8 12 17 21 20 18 13 8 8 9 7 6 7 9 8 9 9 10 11 11 13 15 14 13 14 14 15 15 16 16 17 17 17 16 16 16 17 16 16 17 18 17 16 15 14 14 15 15 14 12 11 13 15 16 17 19 20 21 22 24 24 25 27 28 29 28 28
4 3 0 3 2 2 5 4 5 6 5 4 3 3 6 6 5 8 10 10 10 9 9 9 8 8 8 7 6 7 7 6 12 15 8 5 4 5 7 8 7 6 9 8 7 9 10 11 11 13 14 14 13 14 14 14 15 15 16 16 16 17 17 17 16 14 16 17 17 18 15 11 10 10 11 12 12 12 10 10 10 11 12 14 16 18 19 19 20 22 24 25 26 27 27 28 28
3 3 2 3 2 2 4 5 4 6 6 5 5 4 7 7 4 8 9 10 11 10 9 8 8 8 8 7 7 7 7 7 11 9 2 1 3 6 9 9 8 7 7 6 6 8 9 10 11 12 12 12 12 13 14 15 16 16 16 16 17 17 18 18 17 15 15 16 15 18 17 14 12 10 9 7 6 6 7 8 8 9 12 13 15 16 17 18 20 21 22 23 25 26 25 26 27
5 5 2 3 4 3 5 6 3 3 6 6 4 5 7 7 6 8 9 9 10 10 8 7 7 8 8 7 7 7 6 8 9 4 3 1 5 8 10 9 7 5 5 5 6 7 9 10 11 11 11 11 12 13 13 16 17 18 17 16 17 18 18 19 18 17 16 16 14 16 18 17 15 13 12 10 8 7 7 8 9 11 13 14 15 16 16 18 19 20 21 22 24 25 26 26 26
4 2 1 4 4 5 6 6 5 2 4 5 5 6 9 8 8 10 9 7 8 9 8 8 8 7 7 7 8 7 6 7 4 2 2 3 6 9 9 6 5 5 5 7 8 8 9 10 11 11 10 11 12 12 14 16 16 17 15 14 15 16 17 18 18 19 18 18 18 17 17 18 17 17 16 15 13 12 12 12 13 14 15 16 17 17 17 19 19 19 21 21 22 23 24 23 25
1 2 1 4 4 7 7 5 5 3 4 6 6 6 10 9 8 8 8 8 10 11 10 10 9 8 7 7 8 7 5 5 3 2 3 4 7 7 5 5 6 6 6 8 8 9 9 10 11 11 11 12 13 12 13 15 14 14 13 14 16 16 17 17 18 18 18 19 20 20 19 19 19 19 18 17 16 15 14 15 15 15 16 16 16 17 18 19 20 20 21 22 22 21 19 20 23
3 2 2 4 4 6 7 3 2 3 2 6 6 5 9 9 7 7 8 10 9 9 10 10 10 9 8 7 8 6 5 4 4 4 4 4 4 3 4 5 5 6 7 8 8 8 10 11 12 12 13 13 13 12 13 14 14 14 15 16 16 16 17 17 17 18 18 19 19 18 17 17 18 18 17 17 16 15 14 14 14 14 14 14 15 16 17 18 19 20 19 20 20 19 18 19 18
2 2 1 4 3 2 4 4 5 6 3 5 6 7 8 5 3 5 8 8 5 5 8 8 8 9 9 8 7 6 6 5 4 5 6 5 3 4 5 5 6 7 7 7 7 8 10 11 11 12 13 13 13 13 13 14 15 17 18 18 18 17 17 17 19 19 19 20 18 16 14 14 16 16 17 17 17 16 16 15 15 15 15 15 15 16 16 17 17 17 17 16 17 18 19 18 15
3 3 2 4 5 3 5 5 8 9 4 2 5 7 6 2 2 6 5 3 5 4 6 7 7 7 7 7 6 6 6 5 4 5 7 6 6 5 5 5 7 7 6 6 6 7 9 10 11 12 12 12 12 12 13 14 15 17 18 18 18 17 17 16 17 19 19 18 16 14 15 16 17 17 17 17 17 17 16 16 16 16 17 16 16 16 16 15 15 15 16 15 16 17 18 18 17
5 3 4 5 6 6 7 6 7 6 4 2 4 5 6 2 3 8 3 3 6 4 5 9 8 6 6 6 6 6 5 5 6 6 7 8 7 5 6 7 8 7 5 5 6 7 9 10 11 12 13 13 13 13 14 15 16 17 16 16 16 15 14 14 14 16 16 15 15 16 18 18 18 18 18 17 17 17 17 17 17 18 18 17 17 16 16 16 16 15 15 14 14 14 17 18 17
4 4 3 3 5 6 7 5 3 2 4 3 4 2 5 4 4 8 4 6 8 5 7 9 7 7 8 7 7 6 5 5 6 7 8 8 6 5 7 8 8 6 4 4 5 7 8 10 11 12 13 12 12 13 14 16 17 16 14 14 14 13 14 13 13 13 14 14 16 18 19 19 18 18 17 17 17 17 17 17 17 17 17 17 17 16 16 16 15 15 15 15 15 14 16 16 16
4 4 3 6 8 8 7 3 1 2 4 4 3 3 3 5 5 4 1 5 8 8 10 11 9 9 9 8 8 7 6 5 5 5 7 7 6 6 8 7 8 6 3 3 5 7 8 10 11 12 11 11 12 13 14 16 16 13 12 13 14 13 14 14 13 13 14 16 18 20 20 19 18 17 17 17 17 17 17 17 17 17 16 17 17 16 15 14 14 15 15 15 15 15 15 15 15
6 6 7 8 7 7 5 2 3 1 2 5 4 2 1 6 5 3 2 3 7 10 12 12 11 11 10 10 9 7 6 6 6 5 7 8 7 8 8 6 7 6 4 4 6 8 9 10 11 11 11 11 12 13 14 15 13 11 12 13 14 13 12 13 15 17 18 19 20 20 19 18 17 17 17 17 17 17 18 18 18 18 18 18 17 15 15 16 16 15 13 11 12 13 13 13 13
6 7 9 6 1 2 1 3 2 2 3 4 4 2 1 6 5 1 2 3 7 9 10 10 11 11 10 10 9 7 6 5 6 7 9 9 9 9 8 7 7 6 5 6 7 8 9 10 11 12 12 12 13 13 14 14 12 12 13 13 13 13 13 16 18 19 19 19 19 19 19 17 17 17 17 18 18 19 19 19 19 19 20 19 18 17 17 18 17 15 14 14 14 14 14 15 14
4 6 7 5 3 2 2 2 3 4 2 6 4 4 3 4 5 3 3 4 6 6 6 6 7 9 10 9 8 7 6 5 5 7 9 11 11 10 8 8 8 7 7 7 8 9 10 11 12 12 13 12 12 13 13 13 13 13 12 12 12 14 16 17 17 18 18 19 19 19 18 17 18 19 19 20 20 19 19 19 19 19 20 19 18 18 18 18 18 18 19 19 18 17 16 17 17
3 4 3 4 4 3 3 4 4 3 4 5 4 2 2 3 6 4 5 6 6 6 6 7 7 9 9 8 7 6 6 5 5 5 7 11 12 12 10 9 9 8 8 8 9 9 9 10 12 12 12 12 12 13 13 13 13 12 11 12 14 16 16 16 16 17 18 19 19 18 17 18 20 20 20 20 19 19 19 19 19 19 20 20 19 19 19 19 19 20 21 20 20 19 18 17 17
5 3 4 4 3 4 3 4 2 1 5 4 5 0 1 6 8 8 8 9 9 8 8 8 8 9 9 8 7 6 5 5 5 5 6 9 13 13 12 11 10 10 9 9 8 9 10 10 11 12 12 12 12 12 12 12 12 12 13 14 15 15 14 15 16 17 18 17 17 17 18 19 20 20 20 20 20 20 20 20 20 20 20 21 21 20 20 20 19 19 20 20 20 19 18 17 17
4 2 3 3 2 5 4 4 3 3 5 2 3 1 3 6 7 8 10 9 9 9 9 9 8 8 8 8 6 6 5 6 6 5 6 9 13 14 13 12 12 11 10 9 9 9 10 10 11 12 13 13 13 12 11 11 12 13 14 14 13 13 14 14 15 16 16 16 16 17 19 19 19 20 20 20 20 20 20 20 20 21 21 21 21 21 21 21 21 20 20 20 20 20 19 19 19
2 1 3 3 2 1 2 3 2 4 7 4 2 2 3 4 4 6 7 7 5 6 7 7 7 7 6 5 5 5 6 6 6 7 8 11 15 15 13 12 12 11 10 10 10 10 10 11 11 12 13 13 13 11 10 11 12 13 14 13 12 12 13 14 14 15 15 16 18 19 19 19 20 21 21 21 21 20 21 21 21 22 22 22 22 22 23 23 22 22 21 21 20 20 20 20 21
1 1 3 1 2 3 2 3 4 2 5 5 2 2 5 4 6 4 1 5 5 4 5 5 7 7 4 5 6 6 6 7 7 7 8 12 16 15 13 13 13 11 11 11 11 11 11 11 11 12 13 13 12 11 10 11 13 14 14 13 13 13 13 14 14 15 16 18 19 19 20 20 20 21 21 21 21 21 21 21 22 22 22 22 22 22 22 22 22 21 22 22 21 21 21 21 22
0 2 1 2 2 5 3 2 2 3 2 4 2 4 5 4 7 5 4 5 6 5 6 7 8 7 5 7 8 7 7 7 8 8 8 12 16 16 14 13 13 12 12 12 12 12 12 12 12 12 13 13 12 12 12 12 13 14 14 13 13 14 13 14 15 16 18 18 18 19 20 20 20 20 21 22 21 21 21 21 22 23 22 23 23 22 22 22 22 23 23 23 22 22 21 21 22
2 0 2 2 2 4 3 1 4 4 1 4 2 6 8 4 4 5 4 6 8 8 8 8 9 8 8 9 8 8 8 7 8 8 9 13 16 17 15 14 13 13 13 13 12 12 12 12 12 12 13 13 13 13 13 13 13 13 13 13 14 14 13 14 15 16 17 18 18 20 20 21 21 21 22 22 21 21 22 22 23 24 24 23 23 23 22 22 23 23 23 23 23 22 22 22 22
3 2 2 2 1 1 1 1 2 2 3 5 4 6 6 3 4 5 5 6 9 9 8 8 9 9 9 10 9 9 8 6 7 7 8 11 16 17 16 14 14 13 13 13 12 12 12 12 13 13 13 13 13 14 14 13 12 12 13 14 14 14 14 15 15 16 16 18 19 19 20 21 21 21 21 21 21 22 23 23 23 24 24 23 22 22 21 21 22 23 23 23 23 22 22 23 22
3 2 2 2 2 3 1 1 1 1 2 4 4 6 5 6 6 5 8 9 9 8 7 7 10 10 9 9 8 8 7 7 8 8 8 11 16 18 16 14 14 14 13 13 13 13 13 13 13 13 13 13 14 15 14 13 12 13 13 14 14 15 15 15 15 16 17 18 18 19 19 20 20 21 21 22 23 23 23 24 24 24 23 22 21 20 19 19 20 21 22 22 22 22 22 23 23
2 1 1 1 0 2 0 0 3 3 2 2 2 6 9 7 4 6 10 10 8 8 8 8 9 9 9 9 8 8 8 8 8 8 8 11 16 18 16 15 14 13 13 14 14 14 13 13 13 13 13 13 14 14 13 13 13 13 13 13 14 15 15 16 16 17 17 18 18 19 19 19 20 21 22 23 23 23 24 24 24 23 22 21 20 19 19 19 19 21 21 22 22 22 22 23 23
5 3 4 3 2 2 0 3 2 2 3 4 2 4 12 8 3 6 9 8 7 8 8 8 8 9 9 8 9 9 8 9 9 8 8 11 15 17 16 15 14 14 15 15 15 14 14 14 14 13 13 13 14 14 14 14 14 14 14 14 14 15 16 17 18 18 19 19 19 19 18 19 21 22 22 22 23 24 24 24 23 22 21 20 20 20 19 19 20 21 22 22 23 23 23 24 24
Wind_Direction
301 303 310 325 327 334 355 63 67 21 69 71 28 47 10 343 324 29 17 1 62 56 51 67 42 42 77 98 113 96 49 39 28 15 43 339 20 25 17 19 16 11 11 14 21 21 15 13 12 12 14 14 15 16 15 15 16 19 23 26 27 25 19 12 4 351 356 332 306 287 266 262 261 247 227 241 234 198 202 250 224 208 221 224 215 212 211 202 200 197 198 198 192 188 192 196 200
320 315 317 330 333 349 341 75 84 44 60 68 16 28 340 323 358 30 12 5 78 122 98 83 71 68 92 111 114 89 44 20 25 106 61 17 20 25 22 24 23 23 22 21 24 25 17 12 11 11 13 13 15 16 15 15 14 17 18 22 26 21 19 22 35 48 54 50 41 23 351 327 293 269 247 238 239 216 210 225 254 236 215 241 234 215 215 212 209 211 210 208 204 198 195 202 211
342 329 331 346 355 42 44 43 83 83 72 86 28 338 338 8 25 30 14 21 78 138 117 87 77 54 73 83 50 62 55 11 18 44 51 30 29 21 23 25 25 27 27 27 28 29 21 14 15 13 13 14 16 16 16 16 15 17 15 19 23 18 13 16 27 37 44 50 50 49 50 39 33 10 298 258 253 230 226 217 238 253 236 253 238 213 217 216 213 221 224 217 211 207 202 212 225
346 336 333 354 28 26 48 48 68 95 83 113 66 342 344 38 42 52 49 40 45 104 109 73 59 7 50 66 29 64 57 358 19 26 52 29 31 30 33 34 31 30 28 29 29 33 25 16 18 17 17 16 17 17 17 17 17 18 16 16 19 16 11 14 22 26 32 39 41 43 48 44 44 44 32 359 290 246 247 234 222 243 245 259 233 211 218 218 216 222 226 227 221 216 210 212 229
343 342 342 17 66 31 70 57 45 80 68 138 103 351 328 16 53 89 77 52 38 34 55 84 87 4 66 63 4 67 339 279 29 40 60 37 44 48 44 43 37 34 29 27 28 33 28 18 19 20 20 19 18 19 18 19 19 19 18 17 17 15 10 13 19 22 26 30 33 35 37 35 37 40 37 41 36 360 282 265 261 250 240 260 235 218 218 219 221 223 223 227 225 223 217 207 226
345 356 21 56 77 79 75 65 65 72 41 101 115 324 308 347 52 80 65 54 41 38 50 65 112 117 82 69 54 44 10 81 50 46 60 48 52 51 45 43 39 37 31 28 27 31 30 21 20 21 21 21 21 20 19 19 19 19 19 18 17 15 11 12 17 19 20 22 27 31 32 30 32 34 33 36 36 37 36 26 14 289 239 247 240 227 225 228 230 230 226 226 226 225 222 211 219
353 9 37 56 48 54 78 84 82 79 33 72 119 149 305 20 66 52 22 33 33 28 49 65 115 107 73 87 62 46 59 81 75 64 69 61 55 50 46 42 39 37 31 28 26 27 29 24 20 21 21 22 22 21 20 19 19 19 19 19 18 16 14 13 15 16 16 17 21 24 26 26 27 29 30 30 29 33 35 38 45 36 283 248 249 234 232 238 238 237 236 230 228 225 225 218 212
3 54 46 75 61 45 86 91 85 96 36 34 119 131 96 61 79 60 30 38 54 24 41 109 121 87 41 60 91 62 71 83 85 78 73 64 56 50 45 40 39 37 31 28 26 24 25 25 23 21 21 22 22 22 21 20 20 19 18 19 19 19 17 18 17 15 16 15 16 18 20 20 22 23 23 25 25 26 26 30 36 37 46 44 358 234 241 246 242 238 238 234 231 227 224 219 209
30 70 39 80 80 66 87 86 70 73 46 33 49 83 87 66 66 77 57 46 83 55 37 53 120 95 99 73 89 78 78 87 84 77 68 61 57 52 46 43 42 38 34 31 30 28 26 26 25 22 20 21 21 21 20 20 20 19 18 17 17 17 18 20 19 17 18 17 15 15 18 18 19 20 19 20 20 20 20 22 26 30 39 42 42 41 297 240 248 238 234 236 234 233 224 219 212
54 32 74 86 79 87 80 73 75 62 65 98 66 61 85 84 73 67 74 59 57 80 59 54 73 107 134 85 72 88 95 93 83 74 67 66 60 56 53 49 45 40 36 33 32 31 30 28 26 25 21 20 20 19 19 18 18 19 19 18 16 15 16 17 19 19 19 19 17 14 16 19 19 20 20 18 17 16 16 16 18 22 30 35 37 39 42 50 294 242 231 236 233 236 228 222 213
54 351 84 88 72 102 105 119 134 125 17 131 80 48 76 94 86 52 58 75 33 82 103 60 78 109 106 82 83 115 107 92 83 79 71 69 63 58 57 51 46 41 37 34 31 29 28 25 24 23 21 19 18 18 18 17 16 16 16 18 18 16 15 15 16 18 19 19 19 16 15 18 18 19 19 17 16 16 16 14 13 14 22 29 32 37 42 42 31 358 241 234 229 234 230 227 217
78 341 65 85 100 130 144 146 159 171 239 89 58 19 54 78 85 73 60 73 13 53 50 15 138 132 85 82 157 116 102 92 89 86 80 74 68 62 58 53 47 42 37 32 28 26 23 21 20 19 18 16 15 15 15 15 14 14 13 14 15 16 15 14 15 15 17 18 18 18 17 19 17 16 18 17 17 16 16 16 14 10 11 19 24 31 34 38 38 29 18 283 233 232 227 228 222
104 116 85 93 116 127 135 129 171 147 355 28 61 17 42 67 79 115 94 70 20 54 13 326 162 128 88 147 192 110 95 99 100 95 91 82 76 67 60 53 48 41 34 29 25 23 20 18 16 15 14 12 11 10 9 11 11 10 11 10 11 13 13 13 13 13 14 14 15 16 17 21 21 18 16 15 17 17 17 19 17 12 8 7 13 22 24 29 35 28 28 35 37 203 213 221 222
112 143 101 112 79 110 128 88 9 79 45 13 64 38 45 56 71 130 102 70 26 59 360 344 136 109 100 157 337 7 95 108 108 101 99 88 82 70 60 53 46 39 31 27 23 20 17 15 12 11 9 7 6 5 4 4 5 5 5 6 6 8 10 11 10 11 11 11 10 11 13 17 20 20 16 12 15 15 16 21 19 14 11 7 4 10 15 20 26 24 29 42 46 56 152 201 219
104 123 85 105 45 59 103 91 87 91 76 28 80 77 68 39 16 83 69 84 28 282 110 35 77 116 134 159 159 180 114 116 108 101 98 85 78 64 55 47 39 34 29 24 20 16 13 10 7 6 4 2 1 360 359 357 358 358 358 0 1 2 4 7 7 8 8 8 6 5 7 10 13 15 15 15 17 15 14 19 18 13 11 9 5 3 6 13 21 21 24 38 48 49 66 147 206
98 98 68 79 44 54 95 119 102 85 90 76 126 111 77 28 359 63 26 91 100 351 40 31 14 100 122 134 137 126 114 113 104 96 86 72 63 54 47 38 32 26 23 19 16 12 9 6 3 2 359 359 357 355 355 354 354 353 353 355 357 357 357 0 2 3 3 4 3 1 3 5 6 7 8 11 14 16 15 15 14 11 10 9 10 8 5 5 11 20 21 28 41 48 61 88 135
63 73 66 71 74 125 141 162 140 111 160 115 106 111 98 71 22 79 53 70 94 56 56 52 45 75 96 112 122 114 109 110 102 89 68 57 47 42 37 30 25 19 17 13 11 8 5 3 360 358 356 355 353 352 352 352 351 349 349 349 353 354 353 355 358 359 359 359 359 356 358 360 2 3 4 4 6 11 14 14 13 10 7 6 8 12 12 5 1 9 19 22 24 32 48 65 65
55 77 79 101 139 133 159 172 173 125 142 172 37 105 122 133 149 127 82 63 82 77 65 69 68 73 97 112 115 111 112 109 94 80 65 57 48 41 34 25 19 14 12 8 7 4 1 359 357 354 352 351 349 348 349 351 351 349 348 347 349 351 350 350 354 357 356 357 357 352 353 354 355 358 2 360 359 3 8 11 14 12 9 9 7 8 14 11 3 358 4 12 11 13 23 40 47
71 110 82 155 190 151 168 158 152 128 141 147 88 106 120 140 169 143 113 115 106 95 77 78 87 87 103 109 111 113 113 102 89 85 79 73 64 51 35 20 14 10 7 4 1 359 357 355 353 351 349 348 346 344 344 348 351 350 350 349 349 350 349 346 348 352 353 355 357 353 351 350 348 351 355 356 355 357 1 3 8 11 11 12 9 8 10 10 10 3 355 358 2 358 1 15 27
71 107 79 202 191 153 178 123 119 145 146 132 110 96 74 62 155 116 128 145 141 131 138 127 132 148 132 117 112 112 109 102 99 99 95 88 74 53 32 12 7 7 3 1 356 354 353 351 350 348 346 345 342 339 338 344 349 348 348 350 351 350 349 347 345 346 348 350 352 353 352 349 345 345 348 350 351 353 356 357 360 4 6 9 8 7 8 6 7 9 3 354 355 353 350 356 5
65 92 133 186 165 112 124 127 123 134 131 124 124 99 78 36 50 124 139 124 173 197 184 174 165 161 149 139 122 116 116 113 112 111 106 93 67 35 19 358 356 358 356 357 353 351 350 348 346 343 343 342 340 336 332 337 344 345 345 348 350 351 350 348 346 342 343 345 345 348 350 349 346 344 344 345 348 350 352 356 358 360 1 3 4 4 5 4 3 5 6 1 355 351 349 351 351
62 11 140 164 154 113 124 142 123 109 105 110 121 109 111 74 39 143 157 141 204 213 194 167 154 153 149 145 132 124 124 123 124 122 116 98 53 9 1 350 346 347 348 350 348 348 346 344 342 340 338 336 337 333 327 332 339 341 343 344 346 349 348 347 347 340 340 342 340 341 344 347 347 345 344 345 348 350 352 356 359 1 0 360 1 2 1 0 360 360 1 3 1 353 348 348 345
91 19 101 161 166 124 126 129 114 115 113 126 139 119 116 98 57 161 150 177 193 139 133 137 138 146 144 140 136 132 132 134 138 137 132 120 41 340 339 340 337 338 340 340 341 342 340 340 339 338 335 331 332 330 324 327 335 338 339 340 341 344 344 344 345 339 337 339 339 337 339 343 345 346 345 347 350 350 353 357 359 1 1 1 360 359 357 357 357 356 355 357 359 357 351 347 343
93 123 124 149 131 110 119 120 106 105 107 132 126 100 124 138 125 60 69 113 106 105 123 128 134 142 140 138 141 142 144 148 152 158 167 196 247 301 313 313 320 323 325 330 334 334 334 336 335 335 332 326 326 327 322 322 328 333 335 336 337 339 340 342 341 337 335 336 338 336 336 339 341 343 345 349 351 351 354 356 357 358 358 357 356 356 355 353 354 353 352 351 352 353 351 349 345
76 136 165 128 97 104 116 106 97 90 88 110 97 86 144 159 126 93 126 148 120 122 125 127 134 138 139 143 150 152 154 161 166 178 197 223 243 274 287 287 300 306 312 321 326 327 330 331 329 331 330 324 321 320 317 314 318 324 327 330 330 331 334 337 336 335 333 331 334 336 335 337 338 340 343 347 349 352 355 355 354 354 352 351 350 352 353 351 349 349 349 348 348 348 349 349 347
136 139 155 135 123 137 127 102 106 109 116 126 90 72 126 138 91 79 195 189 151 133 126 133 134 135 149 155 162 163 165 174 182 195 211 230 244 262 276 283 290 298 308 315 321 325 327 325 323 326 328 324 317 314 313 310 309 315 319 321 323 323 324 329 331 331 330 328 329 333 335 335 336 336 338 341 346 350 353 354 354 353 351 350 350 351 351 349 347 347 346 346 345 345 346 347 346
135 117 120 115 121 153 108 109 135 128 135 148 118 121 158 161 50 161 215 201 159 136 135 148 141 150 169 169 175 175 178 188 196 206 217 234 248 259 274 284 288 300 309 312 322 324 319 320 322 322 324 323 316 311 311 308 305 311 316 318 317 316 316 318 324 326 326 327 324 325 330 328 329 331 332 335 340 344 347 350 352 352 353 353 352 351 349 349 349 347 346 345 344 343 343 343 344
113 113 100 45 31 21 64 112 169 138 81 148 123 123 185 268 299 207 191 184 163 147 155 168 157 169 181 182 188 187 194 202 207 214 224 241 257 268 276 284 290 301 307 308 318 319 316 321 321 318 322 326 321 316 317 315 312 318 324 324 320 316 313 311 314 319 320 324 320 316 321 316 316 322 325 328 330 333 338 343 344 345 349 350 351 350 347 349 350 349 348 345 344 343 340 339 341
101 105 103 352 5 39 39 81 185 94 102 158 118 89 294 244 258 214 165 163 163 153 166 183 179 188 192 193 198 201 210 212 213 224 238 253 268 274 277 287 294 300 305 307 312 316 320 322 320 322 329 332 331 330 332 331 328 333 334 332 332 327 320 310 309 312 312 316 316 310 309 302 304 310 314 319 321 322 328 336 339 338 342 344 345 346 346 349 351 351 351 349 347 346 342 339 337
68 53 90 4 8 21 315 350 20 47 146 173 125 15 279 243 251 194 158 159 156 162 183 193 193 198 201 203 209 215 219 217 220 236 251 262 270 276 279 288 299 305 308 311 316 323 329 326 326 334 337 334 334 333 331 333 333 334 333 333 337 338 335 322 314 311 306 308 311 305 297 291 294 300 305 310 314 318 326 334 337 335 337 338 339 342 346 349 350 351 351 350 348 348 346 342 338
60 21 47 54 35 287 305 325 28 43 162 181 146 309 269 258 239 187 174 168 161 176 194 197 199 204 210 213 213 225 225 222 230 246 257 263 270 278 283 290 304 311 312 319 329 337 338 337 341 340 339 338 335 333 331 330 329 329 329 329 331 335 341 343 338 327 313 307 305 299 292 288 290 295 300 304 311 319 328 334 334 332 334 337 339 341 343 345 346 347 348 348 346 344 343 341 339
41 31 323 352 60 288 315 329 53 45 194 166 60 287 270 257 219 192 183 177 173 185 198 200 205 209 212 218 220 228 234 233 239 248 256 264 272 283 294 307 318 316 322 337 341 341 340 343 346 343 343 342 338 336 332 327 324 325 326 326 327 328 331 340 348 350 340 324 311 301 289 284 288 292 296 303 315 323 327 331 329 329 334 338 342 342 342 345 345 344 343 346 345 343 340 338 337
360 72 260 294 327 317 322 333 36 47 27 2 31 246 273 268 214 193 184 184 184 189 203 207 208 214 213 220 224 226 241 245 248 253 260 268 276 300 326 337 336 332 348 350 343 343 348 351 352 349 346 344 342 337 329 324 323 324 325 325 326 325 326 331 339 348 357 358 350 332 307 290 289 292 303 315 324 325 324 327 329 333 338 341 343 343 345 348 347 345 342 343 344 342 339 336 334
325 31 249 272 277 309 320 312 336 31 46 345 327 230 260 273 218 192 189 188 190 197 208 209 210 218 218 223 225 231 240 244 254 259 265 271 293 342 348 352 351 353 355 349 350 358 1 1 360 358 355 353 349 342 337 333 331 328 324 323 324 323 323 325 329 339 356 7 13 8 356 341 326 319 326 329 330 330 328 333 337 342 345 347 348 346 348 349 347 346 343 341 342 340 338 335 331
269 307 319 309 293 251 293 295 311 16 11 321 316 276 269 284 239 200 199 190 194 207 207 210 215 217 222 225 226 234 235 239 257 255 169 80 355 358 353 352 347 346 348 341 356 2 358 356 355 358 360 360 354 351 346 341 340 336 329 325 320 317 316 318 322 328 344 356 6 12 12 12 10 5 357 350 354 353 352 352 348 349 349 349 349 347 348 347 344 345 343 340 338 336 335 333 331
222 256 245 270 293 272 266 273 267 9 338 296 277 272 276 281 239 209 208 196 201 215 212 215 219 219 225 226 228 234 235 245 257 229 155 360 354 354 347 340 327 329 332 326 338 342 339 340 343 347 351 350 348 351 348 341 343 343 340 334 323 318 317 318 320 322 328 334 341 356 1 359 1 5 2 360 3 358 355 351 342 340 342 341 342 343 342 341 340 341 339 336 334 332 331 332 332
210 214 255 273 290 291 275 271 271 355 351 272 239 267 278 268 236 213 203 196 207 216 215 220 221 222 224 223 231 234 236 246 251 194 195 326 344 341 337 320 306 314 313 315 321 325 329 334 338 341 341 339 339 346 347 344 349 351 349 345 335 327 325 323 323 322 322 321 319 326 337 341 343 348 350 349 347 343 340 337 334 335 334 333 335 335 332 330 332 332 331 330 328 327 326 328 332
172 140 351 320 302 292 293 276 276 11 19 274 261 278 276 265 241 214 190 194 213 212 210 218 219 223 225 223 231 235 244 257 276 273 251 307 332 332 323 303 306 316 310 311 316 318 322 327 333 334 331 329 330 337 340 340 348 350 342 340 339 332 327 326 325 324 322 320 314 310 315 322 327 335 341 342 341 341 341 338 337 337 334 332 330 327 325 324 325 325 325 325 322 320 320 323 330
48 53 32 325 293 301 308 281 267 16 17 280 297 299 275 265 238 215 200 205 217 212 209 215 213 218 225 224 229 237 252 267 285 283 268 298 317 297 294 305 312 311 303 304 311 317 321 327 330 329 326 325 326 329 331 332 335 334 330 330 331 328 323 320 318 319 319 319 317 311 312 318 322 330 335 337 338 338 339 339 338 337 335 333 329 325 324 322 322 322 322 322 320 317 314 316 324
36 360 349 297 296 343 308 298 324 316 268 258 295 296 279 272 231 232 223 217 238 232 220 224 217 215 219 219 224 224 226 238 261 269 267 275 254 249 289 310 300 292 292 302 314 321 326 331 332 329 327 326 326 325 325 327 327 325 324 324 322 321 319 314 311 311 313 317 321 320 319 321 322 325 327 329 332 331 332 332 332 332 330 329 326 323 323 322 322 320 320 320 318 313 309 309 312
314 237 232 286 299 277 254 287 327 316 297 257 305 308 291 292 231 251 241 230 261 247 227 237 231 225 227 231 233 219 213 213 222 248 257 247 226 247 307 310 283 279 285 303 320 327 331 333 332 331 330 329 328 326 326 329 331 329 329 327 325 323 320 319 318 316 317 320 322 320 318 319 321 322 324 326 328 328 329 328 328 328 326 325 322 321 320 320 319 317 316 317 316 308 302 303 303
324 240 219 263 282 268 269 309 339 338 336 346 18 347 298 302 247 250 245 228 247 233 223 236 236 237 237 241 242 227 218 209 213 235 237 225 226 263 322 301 264 262 283 309 323 328 331 331 331 330 329 330 328 329 332 334 337 337 335 334 332 327 321 320 320 319 320 321 319 316 317 319 321 322 324 326 327 327 327 327 327 327 326 325 323 321 318 317 316 315 313 312 314 310 303 301 301
332 240 212 264 279 273 285 313 355 358 291 294 68 87 273 301 261 250 235 222 243 247 241 243 239 240 236 234 237 227 223 222 228 239 229 225 241 284 315 290 249 244 276 307 319 324 327 326 327 326 326 327 326 327 331 332 336 336 333 331 328 321 314 313 316 317 318 318 317 317 318 320 323 325 326 327 326 326 327 327 328 328 327 326 324 321 319 319 317 313 310 306 304 304 306 304 301
277 263 345 324 306 296 289 288 206 221 279 311 46 120 256 291 270 271 247 223 253 256 250 251 241 239 238 234 234 221 213 217 225 237 231 234 251 278 298 277 237 235 269 294 309 317 318 318 321 323 324 324 323 325 328 332 335 331 326 326 323 316 311 311 317 319 318 316 316 316 318 320 325 328 328 327 328 328 329 328 328 328 326 325 325 322 319 318 314 312 310 305 301 298 299 303 304
261 279 321 306 291 283 269 200 204 240 358 322 319 87 248 274 274 4 52 223 261 256 245 247 241 237 236 234 234 222 215 218 215 225 233 237 248 266 280 259 229 232 260 284 302 308 309 313 316 317 319 322 323 325 329 332 330 323 322 323 319 315 312 312 316 317 315 315 315 316 319 320 322 325 326 327 326 326 325 323 322 322 321 322 322 319 315 311 310 312 311 309 308 301 293 296 303
273 302 311 305 313 270 193 125 141 45 29 269 264 74 32 280 272 3 52 235 252 251 244 243 240 239 235 233 233 221 221 227 219 226 233 237 248 258 261 240 227 239 263 283 299 303 302 305 307 309 314 319 321 324 328 328 322 317 319 320 317 315 315 315 315 314 314 314 313 315 317 318 319 321 322 322 321 322 321 320 318 317 317 317 314 312 310 309 306 303 301 301 305 304 299 296 296
313 348 324 334 30 51 80 88 86 66 325 254 214 118 91 303 280 223 198 223 217 222 247 250 243 241 234 231 230 218 220 226 223 230 233 238 247 249 246 237 236 249 264 279 291 294 296 298 300 305 311 315 317 321 325 323 321 318 315 314 313 313 314 314 313 311 311 311 310 311 313 315 317 317 318 319 320 322 321 319 318 315 313 311 309 307 306 304 300 297 296 296 297 297 297 295 293
13 5 328 348 354 19 33 358 40 69 287 253 191 143 135 240 270 246 229 238 214 202 229 239 236 235 231 228 224 215 216 222 223 228 232 238 241 238 235 237 239 246 257 271 283 287 289 292 296 303 309 313 314 319 322 320 320 315 309 308 308 309 309 308 308 306 307 308 307 308 311 313 314 314 315 317 318 319 318 316 314 311 309 306 304 302 300 297 295 294 293 292 291 290 289 288 287
26 1 8 24 355 6 10 337 5 238 263 210 165 18 261 227 254 265 260 253 232 216 217 222 224 226 229 229 224 217 214 218 220 222 229 233 232 231 230 232 234 239 251 264 273 277 281 287 294 300 307 310 312 316 318 315 312 308 306 307 306 305 304 303 303 302 303 305 304 306 309 310 311 311 312 313 313 314 313 310 308 306 304 302 301 299 297 295 293 291 288 286 286 285 283 281 278
10 5 50 64 36 10 338 307 330 295 271 214 133 64 283 271 272 250 248 251 231 219 218 219 219 221 226 225 216 217 217 215 217 220 224 227 226 227 228 227 229 237 249 258 263 267 273 282 290 298 304 307 309 313 313 308 306 305 305 308 307 303 301 300 300 299 300 301 301 304 305 305 305 305 306 306 307 308 305 303 301 300 298 297 296 295 293 291 290 287 283 281 280 278 278 276 275
317 185 113 104 125 95 282 263 286 299 295 297 42 104 218 276 280 216 227 262 248 225 228 232 237 233 230 226 216 219 223 218 220 220 223 228 227 225 226 225 227 236 247 250 254 258 267 280 288 296 302 304 306 308 306 302 302 302 303 304 303 298 296 295 295 295 296 297 300 301 300 300 300 300 301 301 302 302 300 299 297 296 295 294 292 291 290 289 286 283 280 277 275 273 273 273 274
280 129 88 64 172 152 168 218 209 260 314 300 283 219 211 240 268 253 281 296 276 251 249 250 253 246 227 227 226 222 225 222 220 220 224 228 226 224 223 223 226 236 244 245 249 254 266 278 286 293 299 301 301 301 300 299 298 298 298 296 293 292 291 291 291 291 294 297 298 297 297 297 297 296 298 298 299 298 297 297 296 294 293 292 290 289 287 286 283 281 279 277 275 272 270 269 270
62 55 89 230 166 127 113 288 300 64 354 284 281 279 284 302 292 311 7 310 281 271 259 247 247 244 226 229 230 224 225 223 219 219 223 225 222 223 224 223 226 234 240 242 247 255 267 276 282 290 296 297 296 298 298 295 295 295 292 289 288 289 289 288 289 291 294 295 295 295 296 296 295 295 296 297 297 296 296 296 295 293 292 290 288 286 284 282 281 279 277 275 274 273 270 268 266
104 101 213 182 86 86 96 315 344 40 271 273 298 282 294 327 307 316 345 291 272 260 249 248 251 242 232 234 232 227 226 223 223 223 224 224 220 221 223 224 229 236 241 244 249 257 265 272 279 286 291 292 293 296 296 291 289 288 286 286 286 286 286 286 288 290 292 293 293 294 295 294 294 294 296 296 296 296 296 296 295 294 293 291 288 286 283 280 278 276 274 273 272 271 269 267 265
107 177 168 93 70 346 37 20 337 357 296 289 286 278 279 234 240 287 290 266 265 260 247 246 249 238 232 238 236 235 234 228 229 228 224 222 220 221 222 224 231 236 239 243 248 254 259 266 275 280 283 287 289 293 293 285 280 280 281 284 284 284 284 285 286 287 288 290 291 293 293 293 294 295 296 296 296 297 297 296 296 295 293 291 289 285 282 279 277 273 271 270 269 268 267 266 264
56 55 39 41 140 171 196 134 162 209 277 294 306 313 292 226 207 244 266 264 261 259 252 244 242 235 231 236 237 236 234 228 229 227 224 222 221 223 224 226 230 232 236 241 244 247 254 262 269 272 276 281 285 291 289 279 275 277 278 281 283 283 283 283 284 285 286 288 289 290 291 292 294 294 295 297 297 297 297 297 296 295 293 290 286 283 280 278 275 272 270 268 267 266 264 264 263
100 62 354 315 119 141 238 180 147 147 169 232 309 312 284 259 205 218 255 267 252 241 246 244 242 239 236 235 235 234 231 230 230 227 225 223 222 224 225 226 230 230 233 237 238 243 251 257 260 265 271 277 282 286 283 274 273 276 276 278 281 283 283 283 284 285 286 287 287 289 290 291 292 293 296 297 297 297 297 297 296 293 289 286 283 280 278 276 275 273 271 269 268 266 264 263 263
152 174 192 185 159 131 49 306 284 113 152 184 159 293 280 273 194 213 243 254 244 234 235 244 246 242 242 239 233 231 230 229 228 225 223 220 221 222 221 221 223 224 227 231 236 241 246 250 255 261 267 272 277 279 276 273 273 275 276 278 280 281 282 284 285 286 286 287 288 289 289 290 291 294 295 295 296 297 298 297 294 290 286 283 281 279 277 274 273 272 271 269 267 266 265 263 263